{"data":{"norad_id":51815,"epoch":"2026-05-24T22:35:34.190016Z","epoch_age_seconds":74134,"freshness":"FRESH","line1":"1 51815U 22017AZ  26144.94136794 -.00000284  00000+0  25041-6 0  9994","line2":"2 51815  53.2137 346.8134 0001492  94.7947 265.3216 15.08841324235593","mean_motion":15.08841324,"eccentricity":0.0001492,"inclination_deg":53.2137,"raan_deg":346.8134,"arg_perigee_deg":94.7947,"mean_anomaly_deg":265.3216,"bstar":2.5041e-7,"rev_number":23559,"period_min":95.437470931834,"perigee_km":538.70719487851,"apogee_km":540.77148917897,"semimajor_km":6917.8763420287,"source":"CELESTRAK","updated_at":"2026-05-25T13:38:16.959158Z"}}